Regional Weather Roundup
Issued by NWS Wakefield, VA

Home | Current Version | Previous Version | Text Only | Print | Product List | Glossary Off
Versions: 1 2 3 4 5 6 7 8 9 10 11 12 13 14 15 16 17 18 19 20 21 22 23 24 25 26 27 28 29 30 31 32 33 34 35 36 37 38 39 40 41 42 43 44 45 46 47 48 49 50

000
ASUS41 KAKQ 261815
RWRAKQ

REGIONAL WEATHER ROUNDUP
NATIONAL WEATHER SERVICE WAKEFIELD VA
200 PM EDT TUE JUL 26 2016

Note: "fair" indicates few or no clouds below 12,000 feet with no
significant weather and/or obstructions to visibility. * = Denotes
station may not report precipitation (e.g., rain,snow,etc.),
thunder or fog.

VAZ042-051-052>054-056-261900-
NORTHERN VIRGINIA

CITY           SKY/WX    TMP DP  RH WIND       PRES   REMARKS
WASH NATIONAL  PTSUNNY   94  68  42 W8        29.95F HX  98
DULLES         PTSUNNY   91  70  49 NW9       29.97F HX  96
FORT BELVOIR   FAIR      93  72  50 VRB1      29.95S HX 101
QUANTICO       PTSUNNY   92  74  55 SE3       29.95F HX 101
FREDERICKSBRG*   N/A     94  73  50 N5        29.94F HX 103
STAFFORD*      FAIR      93  70  47 W6        29.99F HX  99
WARRENTON      FAIR      95  66  38 N8        29.97S HX  98
CULPEPER*      FAIR      92  76  58 CALM      29.97S HX 104
MANASSAS*      SUNNY     93  70  46 N6        29.96F HX  99
LEESBURG*      FAIR      90  77  66 CALM      29.98F HX 102
WINCHESTER     FAIR      88  70  55 NW6       30.00S
FRONT ROYAL*     N/A    N/A N/A N/A MISG        N/A
LURAY*         FAIR      91  70  49 CALM      30.00F HX  97
$$

VAZ048-049-060>072-079>083-261900-
CENTRAL AND SOUTH CENTRAL VIRGINIA

CITY           SKY/WX    TMP DP  RH WIND       PRES   REMARKS
RICHMOND       PTSUNNY   93  73  52 NW5       29.95F HX 102
CHESTERFIELD*  MOCLDY    97  68  38 N7        29.96  HX 101
PETERSBURG*    FAIR      95  73  48 E3        29.96S HX 105
HANOVER        PTSUNNY   95  72  47 VRB3      29.97S HX 103
TAPPAHANNOCK*  FAIR      94  69  44 CALM      29.95F HX 100
QUINTON*       FAIR      92  76  59 CALM      29.95S HX 103
CHARLOTTSVILLE FAIR      97  70  41 VRB3      29.97F HX 103
GORDONSVILLE*  FAIR      95  75  53 NE3       29.96F HX 107
ORANGE*          N/A     93  72  49 CALM      29.98F HX 100
LOUISA*        FAIR      95  75  52 E3        29.96F HX 107
BUMPASS*       FAIR      91  75  59 CALM      29.97S HX 101
FARMVILLE*     NOT AVBL
CREWE*         MOCLDY    93  76  56 CALM      29.96F HX 105
FORT PICKETT*  CLOUDY    90  77  65 S5        29.97S HX 103
CHASE CITY*    FAIR      94  71  47 CALM      29.97F HX 101
CLARKSVILLE*   FAIR      95  75  52 NW6       29.97S HX 107
SOUTH HILL*    FAIR      95  74  51 W3        30.02F HX 105
LAWRENCEVILLE* FAIR      94  74  52 W6        29.96S HX 104
EMPORIA*       PTSUNNY   95  73  49 SE5       29.96F HX 105
$$

VAZ088>098-261900-
SOUTHEAST VIRGINIA

CITY           SKY/WX    TMP DP  RH WIND       PRES   REMARKS
NORFOLK        FAIR      92  75  57 NE12      29.94F HX 103
VIRGINIA BEACH FAIR      98  73  44 N9        29.93F HX 108
NORFOLK NAVAL  FAIR      94  76  55 VRB7      29.96S HX 106
WEST POINT*    FAIR      94  73  50 SW6       29.95S HX 102
SALUDA*        FAIR      90  79  70 E7        29.95S HX 105
NEWPORT NEWS   FAIR      92  78  63 MISG      29.94F HX 107
LANGLEY AFB    MOSUNNY   90  79  68 E12       29.94F HX 106
FORT EUSTIS    FAIR      96  79  58 NW5       29.93F HX 114
WILLIAMSBURG*  FAIR      97  77  52 CALM      29.95S HX 112
HR EXEC AP*    FAIR      95  77  55 NW3       29.96S HX 109
FRANKLIN*      FAIR      93  77  58 W5        29.95S HX 106
US460-WAKEFLD  FAIR      95  74  50 VRB3      29.95F HX 105
$$

VAZ020-022-025-037-045-261900-
WEST CENTRAL AND SOUTHWEST VIRGINIA

CITY           SKY/WX    TMP DP  RH WIND       PRES   REMARKS
STAUNTON*      FAIR      90  70  52 CALM      30.03F HX  95
WAYNESBORO*    FAIR      89  69  52 CALM      30.03F
HOT SPRINGS VA NOT AVBL
LYNCHBURG      FAIR      93  69  45 CALM      30.01F HX  98
DANVILLE       FAIR      94  73  50 VRB6      29.99F HX 103
SOUTH BOSTON*  FAIR      95  72  46 CALM      29.97F HX 103
MARTINSVILLE   FAIR      92  70  48 N8        30.04F HX  98
ROANOKE        FAIR      92  69  47 W6        30.04F HX  97
BLACKSBURG     FAIR      87  71  58 NW6       30.13F
DUBLIN*        PTSUNNY   89  70  53 CALM      30.11F
MARION*        FAIR      87  71  59 SW7       30.16F
HILLSVILLE*    PTSUNNY   84  70  61 W6        30.13F
RICHLANDS*     FAIR      85  71  62 W5        30.16F
WISE*          PTSUNNY   86  59  39 W5        30.17F
ABINGDON*      FAIR      88  69  53 NW3       30.12F
$$

MDZ021>025-VAZ099-100-261900-
SOUTHERN MARYLAND AND THE DELMARVA PENINSULA

CITY           SKY/WX    TMP DP  RH WIND       PRES   REMARKS
PATUXENT RIVER PTSUNNY   92  74  55 SE8       29.94F HX 101
BAY BRIDGE APT CLOUDY    90  77  66 W3        29.94S HX 102
LEONARDTOWN    PTSUNNY   88  73  62 NW5       29.96  HX  96
DOVER          PTSUNNY   90  75  61 W10       29.92F HX 100
GEORGETOWN     MOSUNNY   91  72  53 VRB7      29.94F HX  98
EASTON         PTSUNNY   93  81  66 NW7       29.98F HX 113
CAMBRIDGE      MOSUNNY   90  73  58 N3        29.94S HX  98
SALISBURY      MOSUNNY   92  75  57 MISG      29.93F HX 103
OCEAN CITY     PTSUNNY   84  75  74 E8        29.95S
WALLOPS ISLAND PTSUNNY   88  71  57 E9        29.95F
ACCOMACK*      FAIR      90  72  55 CALM      29.95S HX  96
$$

NCZ012>017-030>032-261900-
NORTH CENTRAL AND EASTERN NORTH CAROLINA

CITY           SKY/WX    TMP DP  RH WIND       PRES   REMARKS
ROANOKE RAPIDS FAIR      91  77  62 CALM      29.96S HX 105
RALEIGH        PTSUNNY   94  77  57 VRB7      29.99F HX 108
ELIZABETH CITY SUNNY     93  78  61 W9        29.95F HX 108
AHOSKIE*       SUNNY     90  78  67 CALM      29.96S HX 104
EDENTON*       SUNNY     93  75  55 CALM      29.96F HX 104
CURRITUCK*     SUNNY     93  77  59 W5        29.96F HAZE    HX 106
KILL DEVIL HLS SUNNY     96  74  49 W6        29.95F HX 107
MANTEO           N/A     90  80  71 N7        29.96F HX 108
CAPE HATTERAS  SUNNY     85  77  77 SW15      29.99S HX  95
TARBORO*       FAIR      94  79  61 SW5       29.97S HX 111
GOLDSBORO      MOSUNNY   96  75  51 SW15      29.96F HX 108
WASHINGTON     SUNNY     92  78  64 SW9       29.96F HX 107
GREENVILLE     SUNNY     95  79  59 SW6       29.98F HX 112
NEW BERN       SUNNY     93  75  55 SW9       29.99F HX 104
WILMINGTON     PTSUNNY   91  75  59 S9        30.01F HX 101
$$

VAZ048-261900-
ELSEWHERE

CITY           SKY/WX    TMP DP  RH WIND       PRES   REMARKS
HARRISBURG PA  CLOUDY    89  71  55 W5        29.93F HX  95
BALTIMORE      PTSUNNY   94  66  39 NW9       29.94S HX  97
ANNAPOLIS      PTSUNNY   87  77  72 SE8       29.93F HX  99
ANDREWS AFB    FAIR      92  71  50 W7        29.95F HX  98
PHILADELPHIA   PTSUNNY   91  65  41 NW16G23   29.92S
GREENSBORO     CLOUDY    94  69  44 NW3       30.00F HX  99
ROCKY MOUNT    SUNNY     93  79  63 SW8       29.97F HX 110
$$

VAZ100-261900-
MARINE

STATION/POSITION TIME  TEMP    WIND        PRES    WAVE   SWELL
                       AIR SEA DIR/SP/G            HT/PER HT/PER
                 (UTC) (F)     (DEG/KT/KT) (MB)    (FT/S) (FT/S)
BRANDYWINE LGT   1700   81     300/  5/  5   N/A
CAPE MAY NJ      1700   78 74  260/  8/  9 1013.5F
LEWES DE         1700   82 75  330/  2/  3 1014.1F
OCEAN-CITY-INLET 1700   83 70   90/  7/ 10 1014.6F
WACHAPREAGUE VA  1700   83 86   80/ 11/ 12 1014.4S
THOMAS POINT MD  1800   86 85  130/  4/  5 1015.1F
GOOSES REEF MD   1800   86 87   80/  2/  2 1015.1F   0
COVE POINT MD    1700   85      10/  3/  5 1014.9F
SOLOMONS ISLAND  1700   86 84  100/  5/  7   N/A
BISHOPS HEAD MD  1700   87     100/  2/  4 1014.5F
PINEY POINT MD   1700          270/  1/  2   N/A
POTOMAC MD       1800   86 86   80/  6/  6 1012.9F   0
CAMBRIDGE MD     1700   87 86  360/  2/  3 1013.3F
LEWISETTA VA     1700   86 87  100/  1/  2 1014.0F
RAPPAHANNOCK LGT 1700           10/  8/  9 1014.8F
STINGRAY PT      1800   86 87  360/  6/  8 1014.5F   1/ 2
YORK RVR RNG VA  1700   86      80/ 10/ 11 1013.9F
YORKTOWN VA      1700   88 83  300/  4/  4 1013.8F
JAMESTOWN VA     1800   90 90  270/  4/  4   N/A     0
DOMINION TERM VA 1700   87     300/  6/  7 1014.2F
KIPTOPEKE VA     1700      84  320/ 11/ 12   N/A
CHES BAY BRIDGE  1700   86 78  300/  2/  4 1014.2F
CAPE HENRY VA    1700   87     310/  5/  8   N/A
WILLOUBY STN VA  1700   88     230/  3/  4   N/A
CAPE HENRY BUOY  1712      72                N/A     2/ 5
1ST LANDING BUOY 1800   85 81  320/  2/  4 1013.7F
CAPE CHARLES BUO 1726      72                N/A     2/ 5
OFFSHORE WE BUOY 1721      81                N/A     3/ 5
64NM E OF VA BCH 1750   82 81  240/  8/ 10 1014.2F   4/ 6   3/ 6
DUCK PIER NC     1700   86 60  230/ 10/ 12 1014.0F
44100 DUCK FRF   1705      76                N/A     2/ 5
44056 DUCK FRF   1711      68                N/A     1/ 8
OREGON INLET NC  1700   87 84  210/ 11/ 12 1014.6F
HATTERAS NC      1700   85 82  220/ 12/ 17 1015.2F
DIAMOND SHLS NC  1750   84 84  230/ 21/ 25 1015.1F   5/ 5
CAPE LOOKOUT NC  1800   86     240/ 13/ 17 1015.8F
$$



USA.gov is the U.S. government's official web portal to all federal, state and local government web resources and services.